This demonstration page uses our WeatherBlox Daily Observations layout. Learn more.

Left ArrowRight Arrow

39.01783, -85.05884

Hourly Observations for December 20, 2016

Temp ( °F °C ) Dew Point ( °F °C ) Humidity (%) Winds ( mph kmh ) Pressure ( in mb ) Visibility ( mi km ) Precip ( " mm )
12:52 am 00:52 Clear 16 -8.9 12 -11.1 84 84 N N/A 30.60 1036 8 13 N/A
1:52 am 01:52 Clear 14 -10 11 -11.7 88 88 N N/A 30.58 1036 7 11 N/A
2:52 am 02:52 Clear with Mist and Fog 13 -10.6 11 -11.7 92 92 N N/A 30.56 1035 6 10 N/A
3:52 am 03:52 Hazy 16 -8.9 11 -11.7 80 80 N N/A 30.56 1035 5 8 N/A
4:52 am 04:52 Clear with Mist and Fog 14 -10 11 -11.7 88 88 NNW 3 6 30.55 1035 6 10 N/A
5:52 am 05:52 Clear with Mist and Fog 12 -11.1 10 -12.2 92 92 S 6 9 30.52 1034 5 8 N/A
6:52 am 06:52 Clear with Mist and Fog 16 -8.9 13 -10.6 88 88 SSW 5 7 30.53 1034 5 8 N/A
7:52 am 07:52 Mostly Clear with Patchy Fog 14 -10 10 -12.2 84 84 S 3 6 30.52 1034 4 6 N/A
8:52 am 08:52 Partly Cloudy with Mist and Fog 19 -7.2 16 -8.9 88 88 SSW 3 6 30.51 1033 6 10 N/A
9:52 am 09:52 Sunny 23 -5 19 -7.2 85 85 S 8 13 30.51 1033 7 11 N/A
10:52 am 10:52 Mostly Sunny 27 -2.8 23 -5 85 85 SW 8 13 30.48 1032 10 16 N/A
11:52 am 11:52 Mostly Sunny 28 -2.2 22 -5.6 78 78 SW 10 17 30.43 1031 9 14 N/A
12:52 pm 12:52 Mostly Cloudy 33 0.6 22 -5.6 64 64 SSW 8 13 30.38 1029 10 16 N/A
1:52 pm 13:52 Mostly Cloudy 36 2.2 20 -6.7 52 52 SSW 13 20 30.35 1028 10 16 N/A
2:52 pm 14:52 Mostly Cloudy 38 3.3 23 -5 55 55 S 13 20 30.32 1027 10 16 N/A
3:52 pm 15:52 Mostly Cloudy 38 3.3 21 -6.1 51 51 SSW 12 19 30.31 1026 10 16 N/A
4:52 pm 16:52 Mostly Cloudy 36 2.2 20 -6.7 52 52 SSW 10 17 30.28 1026 10 16 N/A
5:52 pm 17:52 Mostly Cloudy 34 1.1 21 -6.1 59 59 SSW 5 7 30.30 1026 10 16 N/A
6:52 pm 18:52 Cloudy 32 undefined 22 -5.6 66 66 SSW 8 13 30.31 1026 10 16 N/A
7:52 pm 19:52 Mostly Cloudy 32 undefined 24 -4.4 73 73 S 9 15 30.27 1025 10 16 N/A
8:52 pm 20:52 Partly Cloudy 32 undefined 25 -3.9 75 75 SSW 8 13 30.27 1025 10 16 N/A
9:52 pm 21:52 Cloudy 31 -0.6 25 -3.9 79 79 SW 8 13 30.27 1025 9 14 N/A
10:52 pm 22:52 Partly Cloudy 29 -1.7 25 -3.9 85 85 SSW 6 9 30.29 1026 9 14 N/A
11:52 pm 23:52 Mostly Clear 28 -2.2 24 -4.4 85 85 SW 5 7 30.28 1026 9 14 N/A

Powered by AerisWeather